Location: Nairn
(57.5833°N, 3.8667°W)
Time: 17:40:23
(UTC+00:00)

S-56A Canister/Altair - Pass Details

Date: 03 December 2020
Orbit: 633 x 2499 km, 38.9° (Epoch: 19 January)

Event Time Altitude Azimuth Distance (km) Brightness Sun altitude
Rises 21:10:47 0° 251° (WSW) 5,459 12.3 -42.7°
Reaches altitude 10° 21:15:43 10° 238° (WSW) 4,121 11.4 -43.3°
Enters shadow 21:19:39 18° 220° (SW) 3,208 10.7 -43.7°
Maximum altitude 21:22:55 22° 195° (SSW) 2,746 - -44.1°
Drops below altitude 10° 21:28:29 10° 148° (SSE) 3,070 - -44.7°
Sets 21:31:31 0° 133° (SE) 3,765 - -45.1°
